Location: Neu-Ulm
(48.3873°N, 10.0192°E)
Time: 15:26:46
(UTC+02:00)

Envisat - Visible Passes

Search period start: 17 October 2018 00:00
Search period end: 27 October 2018 00:00
Orbit: 764 x 766 km, 98.2° (Epoch: 17 October)

Date Brightness Start Highest point End Pass type
(mag) Time Alt. Az. Time Alt. Az. Time Alt. Az.
17 Oct 4.2 18:50:51 10° ESE 18:54:38 22° ENE 18:58:26 10° NNE visible
17 Oct 3.4 20:28:12 10° S 20:33:14 63° WSW 20:38:18 10° NNW visible
18 Oct 2.9 19:51:28 10° SSE 19:56:29 65° ENE 20:01:32 10° N visible
18 Oct 5.5 21:32:27 10° SW 21:35:59 19° W 21:39:33 10° NW visible
19 Oct 3.7 19:15:26 10° SE 19:19:56 33° ENE 19:24:28 10° N visible
19 Oct 4.4 20:54:13 10° SSW 20:58:54 38° W 21:03:38 10° NNW visible
20 Oct 3.1 20:16:57 10° S 20:22:01 77° WSW 20:27:08 10° NNW visible
20 Oct 6.0 22:00:33 10° W 22:01:55 11° W 22:03:16 10° WNW visible
21 Oct 3.1 19:40:25 10° SE 19:45:21 53° ENE 19:50:18 10° N visible
21 Oct 5.2 21:20:41 10° SW 21:24:41 23° W 21:28:42 10° NW visible
22 Oct 3.9 19:04:36 10° ESE 19:08:51 28° ENE 19:13:06 10° N visible
22 Oct 4.0 20:42:47 10° S 20:47:39 46° W 20:52:34 10° NNW visible
23 Oct 2.9 20:05:45 10° SSE 20:10:50 86° ENE 20:15:58 10° NNW visible
23 Oct 5.8 21:47:57 10° WSW 21:50:33 14° W 21:53:10 10° NW visible
24 Oct 3.3 19:29:25 10° SE 19:34:12 43° ENE 19:39:01 10° N visible
24 Oct 4.8 21:09:02 10° SSW 21:13:23 28° W 21:17:46 10° NW visible
25 Oct 4.1 18:53:50 10° ESE 18:57:47 23° ENE 19:01:43 10° N visible
25 Oct 3.5 20:31:26 10° S 20:36:26 58° W 20:41:28 10° NNW visible
26 Oct 2.9 19:54:37 10° SSE 19:59:40 71° ENE 20:04:45 10° N visible
26 Oct 5.6 21:35:55 10° SW 21:39:13 17° W 21:42:34 10° NW visible
